Regional Weather Roundup
Issued by NWS

Home | Current Version | Previous Version | Text Only | Print | Product List | Glossary Off
Versions: 1 2 3 4 5 6 7 8 9 10 11 12 13 14 15 16 17 18 19 20 21 22 23 24 25 26 27 28

000
ASUS45 KTFX 182110
RWRMT
MONTANA REGIONAL WEATHER ROUNDUP
NATIONAL WEATHER SERVICE GREAT FALLS MT
300 PM MDT WED OCT 18 2017

NOTE: "FAIR" INDICATES FEW OR NO CLOUDS BELOW 12000 FEET WITH NO
SIGNIFICANT WEATHER AND/OR OBSTRUCTIONS TO VISIBILITY.

MTZ001>007-043-182200-
WEST OF THE DIVIDE

CITY           SKY/WX    TMP DP  RH WIND       PRES   REMARKS
KALISPELL      LGT RAIN  53  37  54 S8        29.91F
MISSOULA       CLOUDY    60  40  47 NW7       29.96F
BUTTE          CLOUDY    60  27  28 W16G26    30.03F
MULLAN PASS    LGT RAIN  38  36  92 VRB6G20   29.96F VSB<1/4
$$

MTZ008-052>055-182200-
SOUTHWEST MONTANA

CITY           SKY/WX    TMP DP  RH WIND       PRES   REMARKS
BOZEMAN        CLOUDY    69  16  13 SW20G30   29.96F
DILLON         SUNNY     65  29  25 SW20G31   30.02F
W YELLOWSTONE  CLOUDY    54  23  30 SW21G33   30.17F
ENNIS          CLOUDY    64  18  16 S26G33    30.08F
$$

MTZ009-010-012-014-046-048-049-054-182200-
EAST SLOPES AND CENTRAL MONTANA

CITY           SKY/WX    TMP DP  RH WIND       PRES   REMARKS
CUT BANK       PTSUNNY   58  30  34 W26G44    29.80F
GREAT FALLS    CLOUDY    63  30  28 SW25G36   29.86F
MALMSTROM AFB  PTSUNNY   61  30  31 SW17G28   29.86F
HELENA         CLOUDY    62  29  28 E7        29.93F
$$

MTZ011-013-016-021-045-047-050-051-182200-
NORTH CENTRAL MONTANA

CITY           SKY/WX    TMP DP  RH WIND       PRES   REMARKS
HAVRE          SUNNY     61  26  26 SW15      29.84F
LEWISTOWN      CLOUDY    63  26  24 NW9       29.90F
N BAR RANCH    CLOUDY    59  27  29 S22G28    29.92S
$$

MTZ017>020-022>027-061-062-182200-
NORTHEAST MONTANA

CITY           SKY/WX    TMP DP  RH WIND       PRES   REMARKS
GLASGOW        SUNNY     59  23  25 SW13      29.89F
JORDAN           N/A     61  23  23 SW13G21   29.91F
SIDNEY         SUNNY     59  24  26 SW16G24   29.94F
WOLF POINT     SUNNY     61  19  19 SW16G25   29.92F
MALTA          SUNNY     59  19  21 SW10G17   29.89S
PLENTYWOOD       N/A     54  19  26 W18G26    29.89
$$

MTZ028>42-056>058-182200-
SOUTHCENTRAL AND SOUTHEAST MONTANA

CITY           SKY/WX    TMP DP  RH WIND       PRES   REMARKS
BAKER          SUNNY     58  24  27 W15       29.99F
BILLINGS       PTSUNNY   63  30  28 SE6       29.92F
LIVINGSTON     SUNNY     70  13  11 SW36G49   29.92F
MILES CITY     SUNNY     61  25  25 S13       29.95F
BIG TIMBER     SUNNY     70  10  10 W26G36    29.94
$$

REGIONAL REPORTS...DAKOTAS

CITY           SKY/WX    TMP DP  RH WIND       PRES   REMARKS
WILLISTON      CLOUDY    55  22  27 W17G26    29.93F
MINOT          SUNNY     58  18  21 W18G30    29.88S
DICKINSON      SUNNY     59  24  26 W15       29.96F
BEACH            N/A     55  18  22 W10G17    30.01F
CROSBY           N/A     55  16  21 W25G35    29.87F
TIOGA            N/A     52  19  28 W28G35    29.91S
WATFORD CITY     N/A     55  21  26 W18G30    29.93F
BISMARCK       SUNNY     61  21  21 W16       29.97F
GRAND FORKS    MOSUNNY   61  14  16 W23G35    29.80S
FARGO          CLOUDY    61  14  16 W25G33    29.87R
BUFFALO SD       N/A     62  25  24 W8G20     29.94F
RAPID CITY     SUNNY     64  25  22 SE12      30.05F
$$

REGIONAL REPORTS...WYOMING/IDAHO/WASHINGTON

CITY           SKY/WX    TMP DP  RH WIND       PRES   REMARKS
GILLETTE       SUNNY     70  23  17 S14       30.01F
SHERIDAN       SUNNY     70  24  17 SE5       29.96F
BUFFALO WY     SUNNY     70  18  13 S15       30.01F
CODY           CLOUDY    70  12  10 W13G20    30.02F
YELLOWSTONE LA   N/A     49  22  34 VRB7G23   30.23F
IDAHO FALLS    MOSUNNY   65  28  24 SW16      30.15F
SALMON         MOSUNNY   64  32  30 N7        29.99F
BOISE          SUNNY     74  29  19 SE9       30.03F
SPOKANE        LGT RAIN  51  48  89 SE9       29.89F
$$

REGIONAL REPORTS...ALBERTA

CITY           SKY/WX    TMP DP  RH WIND       PRES   REMARKS
EDMONTON       SUNNY     45  25  45 S9        29.65F
CALGARY        PTSUNNY   52  16  24 S14G21    29.63F
LETHBRIDGE     PTSUNNY   59  14  17 SW15      29.73F
MEDICINE HAT   PTSUNNY   57  19  23 S16       29.77F
$$

REGIONAL REPORTS...SASKATCHEWAN

CITY           SKY/WX    TMP DP  RH WIND       PRES   REMARKS
SWIFT CURRENT  SUNNY     50  16  25 W13       29.83F
REGINA         MOSUNNY   54  12  19 W32G41    29.80R
SASKATOON      MOSUNNY   52  12  20 W25G35    29.73R
$$




USA.gov is the U.S. government's official web portal to all federal, state and local government web resources and services.